Weather History for CYYZ - January, 2014

Change the Weather History Date:

Thursday, January 2, 2014

  Actual Average Record
Temperature  
Mean Temperature -0 °F -  
Max Temperature 1 °F 28 °F 53 °F (2000)
Min Temperature -2 °F 12 °F -2 °F (2001)
Degree Days  
Heating Degree Days 66    
Moisture  
Dew Point -9 °F    
Average Humidity 62    
Maximum Humidity 78    
Minimum Humidity 30    
Precipitation  
Precipitation 0.02 in 0.06 in - ()
Sea Level Pressure  
Sea Level Pressure 30.22 in    
Wind  
Wind Speed 15 mph ()    
Max Wind Speed 22 mph    
Max Gust Speed 28 mph    
Visibility 8.3 miles    
Events Snow    
Averages and records for this station are not official NWS values.
T = Trace of Precipitation, MM = Missing Value Source: Averaged Metar Reports

Daily Weather History Graph

Daily Weather History Graph

Search for Another Location

Airport or City:

Trip Planner

Search our weather history database for the weather conditions in past years. The results will help you decide how hot, cold, wet, or windy it might be!

Date:

Astronomy

Jan. 02, 2014 Rise Set
Actual Time 7:52 AM EST 4:53 PM EST
Civil Twilight 7:19 AM EST 5:25 PM EST
Nautical Twilight 6:43 AM EST 6:02 PM EST
Astronomical Twilight 6:08 AM EST 6:36 PM EST
Moon 8:28 AM EST (1/2) 6:52 PM EST (1/2)
Length of Visible Light 10h 06m
Length of Day
9h 01m
New Moon, 2% of the Moon is Illuminated
Jan 2
New Moon
Jan 7
First Quarter
Jan 15
Full
Jan 24
Last Quarter
Jan 30
New

Hourly Weather History & Observations

Time (EST) Temp. Windchill Dew Point Humidity Pressure Visibility Wind Dir Wind Speed Gust Speed Precip Events Conditions
12:00 AM 5.0 °F -14.2 °F -13.0 °F 43% 30.39 in 15.0 mi NNE 17.3 mph - N/A   Overcast
1:00 AM 5 °F - -12 °F 30% 30.37 in 15 mi NNE 13.8 mph - -   Overcast
1:00 AM 5.0 °F -11.6 °F -11.2 °F 47% 30.37 in 15.0 mi NNE 12.7 mph - N/A   Overcast
2:00 AM 3.2 °F -13.9 °F -9.4 °F 56% 30.35 in 15.0 mi NNE 12.7 mph - N/A   Overcast
3:00 AM 3.2 °F -15.3 °F -7.6 °F 61% 30.35 in 15.0 mi NNE 15.0 mph - N/A   Overcast
4:00 AM 3.2 °F -13.9 °F -9.4 °F 56% 30.33 in 15.0 mi NNE 12.7 mph - N/A   Overcast
5:00 AM 1.4 °F -16.1 °F -5.8 °F 72% 30.32 in 8.0 mi NNE 12.7 mph - N/A Snow Light Snow
6:00 AM 1.4 °F -16.1 °F -4.0 °F 78% 30.30 in 4.0 mi NNE 12.7 mph 18.4 mph N/A Snow Light Snow
7:00 AM 1 °F - -6 °F 62% 30.30 in 3 mi NNE 15.0 mph - - Snow Light Snow
7:00 AM 1.4 °F -17.6 °F -5.8 °F 72% 30.30 in 3.0 mi NNE 15.0 mph - N/A Snow Light Snow
8:00 AM -0.4 °F -19.9 °F -5.8 °F 78% 30.28 in 4.0 mi NNE 15.0 mph - N/A Snow Light Snow
9:00 AM -0.4 °F -21.7 °F -9.4 °F 66% 30.27 in 5.0 mi North 18.4 mph - N/A Snow Light Snow
10:00 AM -0.4 °F -20.5 °F -9.4 °F 66% 30.26 in 8.0 mi NNE 16.1 mph - N/A Snow Light Snow
10:38 AM -0.4 °F -19.2 °F -11.2 °F 60% 30.26 in 12.0 mi NNE 13.8 mph - N/A Snow Low Drifting Snow
11:00 AM -0.4 °F -19.2 °F -11.2 °F 60% 30.25 in 15.0 mi NNE 13.8 mph - N/A   Overcast
12:00 PM -0.4 °F -19.2 °F -11.2 °F 60% 30.22 in 15.0 mi North 13.8 mph - N/A   Overcast
1:00 PM -0 °F - -11 °F 44% 30.17 in 10 mi North 17.3 mph - - Snow Low Drifting Snow
1:00 PM -0.4 °F -21.2 °F -11.2 °F 60% 30.17 in 10.0 mi North 17.3 mph - N/A Snow Low Drifting Snow
1:17 PM 1.4 °F -18.2 °F -11.2 °F 56% 30.17 in 4.0 mi NNE 16.1 mph - N/A Snow Light Snow
2:00 PM -0.4 °F -21.7 °F -9.4 °F 66% 30.15 in 3.0 mi North 18.4 mph - N/A Snow Light Snow
2:16 PM -0.4 °F -22.3 °F -9.4 °F 66% 30.14 in 2.0 mi North 19.6 mph - N/A Snow Light Snow
3:00 PM -0.4 °F -22.3 °F -9.4 °F 66% 30.14 in 2.0 mi North 19.6 mph 26.5 mph N/A Snow Light Snow
3:21 PM -0.4 °F -22.8 °F -9.4 °F 66% 30.14 in 3.0 mi North 20.7 mph - N/A Snow Light Snow
4:00 PM -2.2 °F -24.7 °F -9.4 °F 71% 30.14 in 4.0 mi North 19.6 mph 25.3 mph N/A Snow Light Snow
4:37 PM -2.2 °F -24.1 °F -7.6 °F 78% 30.13 in 2.2 mi North 18.4 mph 26.5 mph N/A Snow Light Snow
4:57 PM -2.2 °F -25.2 °F -9.4 °F 71% 30.13 in 4.0 mi North 20.7 mph - N/A Snow Light Snow
5:00 PM -2.2 °F -25.7 °F -9.4 °F 71% 30.13 in 4.0 mi North 21.9 mph - N/A Snow Light Snow
6:00 PM -0.4 °F -21.7 °F -9.4 °F 66% 30.14 in 10.0 mi North 18.4 mph 25.3 mph N/A Snow Low Drifting Snow
7:00 PM -0 °F - -8 °F 54% 30.16 in 5 mi North 18.4 mph - - Snow Low Drifting Snow
7:00 PM -0.4 °F -21.7 °F -7.6 °F 72% 30.16 in 5.0 mi North 18.4 mph - N/A Snow Low Drifting Snow
8:00 PM -0.4 °F -20.5 °F -7.6 °F 72% 30.16 in 5.0 mi North 16.1 mph 24.2 mph N/A Snow Low Drifting Snow
8:52 PM -0.4 °F -21.2 °F -9.4 °F 66% 30.16 in 6.0 mi North 17.3 mph 27.6 mph N/A Snow Light Snow
9:00 PM -0.4 °F -22.3 °F -9.4 °F 66% 30.16 in 6.0 mi North 19.6 mph - N/A Snow Light Snow
9:37 PM -0.4 °F -23.3 °F -13.0 °F 55% 30.17 in 15.0 mi North 21.9 mph 27.6 mph N/A Snow Low Drifting Snow
10:00 PM -0.4 °F -22.3 °F -13.0 °F 55% 30.17 in 15.0 mi North 19.6 mph 26.5 mph N/A Snow Low Drifting Snow
11:00 PM -2.2 °F -24.7 °F -14.8 °F 55% 30.19 in 15.0 mi North 19.6 mph - N/A Snow Low Drifting Snow